FENGYUN 1C DEB, 32453

Orbit data source: Space-Track

FENGYUN 1C DEB, 32453 is space debris in SSO originally from a launch on Mon, 10 May 1999 UTC launched from the Taiyaun Space Center, China (TSC). Fengyun 1C debris stems from the Chinese weather satellite Fengyun-1C, which was intentionally destroyed by a Chinese anti-satellite missile in 2007. This event dramatically increased the amount of space debris, with thousands of trackable fragments posing hazards to satellites and human spaceflight. The Fengyun 1C debris cloud has become a focal point in discussions about space sustainability and the need for international regulations to prevent the creation of new debris.

Loading next visibility...
Identifier
32453, 1999-025DBR
Orbit
SSO
Country
Flag of CNCN / PRC
Related business
Manufacturer
Unknown
Mission
Spacecraft
Bus & Motor
Unknown
Mass
Unknown
Launch date (UTC)
1999-05-10 (27 years ago)
Launch vehicle
Unknown
Launch site
Taiyaun Space Center, China (TSC)
Object type
Payload
Rocket body
Debris
Shape & HBR
Unknown shape, 0.1 m
Radar Cross Section
Small (<0.1 m²)

Expand to show TLE details & history
Last TLE update: 1 day ago

TLE from 1 day ago
0 FENGYUN 1C DEB
1 32453U 99025DBR 25352.72090109  .00000585  00000-0  39591-3 0  9995
2 32453  99.3722 262.5956 0096285 189.3908 170.5459 14.02263669935124
Epoch: 2025-12-18T17:18Z
TLE epoch observation values (Epoch: 2025-12-18T17:18:05.854Z)
Latitude
-0°
Longitude
-84.50114°
Altitude
957.859 km
Speed
7.338 km/s
True Right ascension
17h 30m 22s
True Declination
0° 00' 00"
Sunlit
Object was in daylight at epoch
Visualization orbit readout
Latitude
Unknown
Longitude
Unknown
Altitude
Unknown
Speed
Unknown
Apparent Right ascension
Unknown
Apparent Declination
Unknown
Sunlit
N/A
Visualization observer readout
Local Sidereal Time
19:03:23
Azimuth
Unknown
Elevation
Unknown
Doppler factor
Unknown
Orbital elements
Apogee altitude
953.097 km
Perigee altitude
813.266 km
Semi-major axis
7,261.319 km
Eccentricity
0.00963
Inclination
99.3722°
RAAN
262.5956°
Arg. of periapsis
189.3908°
True anomaly
170.725°
Mean anomaly
170.5459°
Eccentric anomaly
170.63566°
Mean motion
3.50768 °/min
Orbital period
102.63 mins
BSTAR
0.00039591
Loading maneuver chart data...
Computing Atmospheric mass density...

Documentation

Showing up to 5 results
|